TimePST,TemperatureF,Dew PointF,Humidity,Sea Level PressureIn,VisibilityMPH,Wind Direction,Wind SpeedMPH,Gust SpeedMPH,PrecipitationIn,Events,Conditions,WindDirDegrees,DateUTC
2:53 AM,17.1,10.9,77,30.21,-9999.0,Calm,Calm,-,N/A,,Clear,0,2013-01-24 10:53:00
3:23 AM,17.6,12.2,79,30.15,-9999.0,Calm,Calm,-,N/A,,Scattered Clouds,0,2013-01-24 11:23:00
3:32 AM,17.6,14.0,86,30.15,-9999.0,Calm,Calm,-,N/A,,Mostly Cloudy,0,2013-01-24 11:32:00
3:53 AM,18.0,12.9,81,30.23,-9999.0,Calm,Calm,-,N/A,,Overcast,0,2013-01-24 11:53:00
4:53 AM,17.1,12.9,84,30.24,-9999.0,East,4.6,-,N/A,,Overcast,100,2013-01-24 12:53:00
5:53 AM,16.0,12.0,84,30.26,-9999.0,Calm,Calm,-,N/A,,Overcast,0,2013-01-24 13:53:00
6:53 AM,16.0,10.9,81,30.27,-9999.0,Calm,Calm,-,N/A,,Overcast,0,2013-01-24 14:53:00
7:40 AM,15.8,12.2,86,30.19,0.2,Calm,Calm,-,N/A,Fog,Light Freezing Fog,0,2013-01-24 15:40:00
7:53 AM,16.0,12.0,84,30.27,0.2,Calm,Calm,-,N/A,Fog,Light Freezing Fog,0,2013-01-24 15:53:00
8:03 AM,15.8,12.2,86,30.19,-9999.0,East,3.5,-,N/A,,Overcast,100,2013-01-24 16:03:00
8:53 AM,16.0,12.0,84,30.29,0.2,SSE,4.6,-,N/A,Fog,Light Freezing Fog,160,2013-01-24 16:53:00
9:46 AM,19.4,15.8,86,30.21,1.2,Calm,Calm,-,N/A,,Overcast,0,2013-01-24 17:46:00
9:53 AM,19.0,16.0,88,30.29,3.0,Calm,Calm,-,N/A,,Overcast,0,2013-01-24 17:53:00
10:10 AM,19.4,15.8,86,30.21,2.5,WNW,4.6,-,N/A,,Haze,290,2013-01-24 18:10:00
10:28 AM,21.2,17.6,86,30.22,1.2,West,4.6,-,N/A,,Overcast,280,2013-01-24 18:28:00
10:38 AM,21.2,15.8,80,30.22,1.0,WNW,6.9,-,N/A,,Haze,290,2013-01-24 18:38:00
10:51 AM,21.2,17.6,86,30.23,0.8,WNW,5.8,-,N/A,,Haze,290,2013-01-24 18:51:00
10:53 AM,21.9,17.1,82,30.30,0.8,West,5.8,-,N/A,,Haze,280,2013-01-24 18:53:00
10:59 AM,21.2,17.6,86,30.23,1.2,West,5.8,-,N/A,,Overcast,280,2013-01-24 18:59:00
11:53 AM,24.1,19.9,84,30.27,1.2,Calm,Calm,-,N/A,,Overcast,0,2013-01-24 19:53:00
12:30 PM,24.8,21.2,86,30.19,2.0,Calm,Calm,-,N/A,,Overcast,0,2013-01-24 20:30:00
12:53 PM,26.1,21.0,81,30.26,3.0,East,3.5,-,N/A,,Haze,80,2013-01-24 20:53:00
1:53 PM,27.0,21.0,78,30.24,4.0,Calm,Calm,-,N/A,,Haze,0,2013-01-24 21:53:00
2:53 PM,26.1,21.0,81,30.23,3.0,ESE,3.5,-,N/A,,Haze,120,2013-01-24 22:53:00
3:35 PM,26.6,21.2,80,30.16,2.5,Calm,Calm,-,N/A,,Overcast,0,2013-01-24 23:35:00
3:53 PM,26.1,21.0,81,30.24,-9999.0,East,4.6,-,N/A,,Overcast,100,2013-01-24 23:53:00
4:53 PM,26.1,21.0,81,30.23,5.0,ESE,3.5,-,N/A,,Haze,120,2013-01-25 00:53:00
5:38 PM,26.6,21.2,80,30.15,7.0,ESE,4.6,-,N/A,,Overcast,120,2013-01-25 01:38:00
5:53 PM,26.1,21.0,81,30.22,7.0,East,4.6,-,N/A,,Overcast,90,2013-01-25 01:53:00
6:24 PM,26.6,21.2,80,30.16,6.0,SSE,3.5,-,N/A,,Haze,150,2013-01-25 02:24:00
6:39 PM,26.6,21.2,80,30.16,6.0,Calm,Calm,-,N/A,,Haze,0,2013-01-25 02:39:00
6:49 PM,26.6,21.2,80,30.17,6.0,NNW,3.5,-,N/A,,Haze,330,2013-01-25 02:49:00
6:53 PM,26.1,21.0,81,30.25,6.0,Calm,Calm,-,N/A,,Haze,0,2013-01-25 02:53:00
7:00 PM,26.6,21.2,80,30.15,6.0,ENE,3.5,-,N/A,,Haze,70,2013-01-25 03:00:00
7:19 PM,26.6,21.2,80,30.14,6.0,East,6.9,-,N/A,,Haze,80,2013-01-25 03:19:00
7:53 PM,26.1,21.0,81,30.22,7.0,SE,5.8,-,N/A,,Overcast,140,2013-01-25 03:53:00
8:53 PM,26.1,21.0,81,30.22,6.0,Calm,Calm,-,N/A,,Haze,0,2013-01-25 04:53:00
9:09 PM,26.6,21.2,80,30.14,6.0,Calm,Calm,-,N/A,,Haze,0,2013-01-25 05:09:00
9:53 PM,26.1,21.0,81,30.20,5.0,Calm,Calm,-,N/A,,Haze,0,2013-01-25 05:53:00
10:53 PM,26.1,21.0,81,30.20,5.0,Calm,Calm,-,N/A,,Haze,0,2013-01-25 06:53:00
11:32 PM,26.6,21.2,80,30.14,5.0,Calm,Calm,-,N/A,,Haze,0,2013-01-25 07:32:00
11:41 PM,26.6,21.2,80,30.13,5.0,Calm,Calm,-,N/A,,Haze,0,2013-01-25 07:41:00
11:53 PM,26.1,19.9,78,30.19,5.0,Calm,Calm,-,N/A,,Haze,0,2013-01-25 07:53:00